Weather History for Buffalo, NY

Change the Weather History Date:

Saturday, March 2, 2013

  Actual Average Record
Temperature  
Mean Temperature 24 °F 29 °F  
Max Temperature 26 °F 37 °F 66 °F (1991)
Min Temperature 21 °F 22 °F -5 °F (1980)
Degree Days  
Heating Degree Days 41 36  
Month to date heating degree days 77 72  
Since 1 July heating degree days 4397 4816  
Cooling Degree Days 0 0  
Month to date cooling degree days 0 0  
Year to date cooling degree days 0 0  
Moisture  
Dew Point 17 °F    
Average Humidity 79    
Maximum Humidity 84    
Minimum Humidity 74    
Precipitation  
Precipitation T in 0.09 in 1.33 in (1976)
Month to date precipitation T 0.18  
Year to date precipitation 5.55 5.85  
Snow  
Snow 0.10 in 0.60 in 6.50 in (1914)
Month to date snowfall 0.5 1.1  
Since 1 July snowfall 49.2 79.9  
Snow Depth 0.00 in    
Sea Level Pressure  
Sea Level Pressure 29.95 in    
Wind  
Wind Speed 9 mph (NW)    
Max Wind Speed 15 mph    
Max Gust Speed 18 mph    
Visibility 7 miles    
Events Snow    
T = Trace of Precipitation, MM = Missing Value Source: NWS Daily Summary

Daily Weather History Graph

Daily Weather History Graph

Search for Another Location

Airport:

Trip Planner

Search our weather history database for the weather conditions in past years. The results will help you decide how hot, cold, wet, or windy it might be!

Date:

Astronomy

Mar. 02, 2013 Rise Set
Actual Time 6:48 AM EST 6:05 PM EST
Civil Twilight 6:20 AM EST 6:34 PM EST
Nautical Twilight 5:47 AM EST 7:07 PM EST
Astronomical Twilight 5:14 AM EST 7:40 PM EST
Moon 11:53 PM EST (3/2) 9:06 AM EST (3/2)
Length of Visible Light 12h 13m
Length of Day
11h 17m
Waning Gibbous, 74% of the Moon is Illuminated
Mar 2
Waning Gibbous
Mar 4
Last Quarter
Mar 11
New
Mar 19
First Quarter
Mar 27
Full

Hourly Weather History & Observations

Time (EST) Temp. Windchill Dew Point Humidity Pressure Visibility Wind Dir Wind Speed Gust Speed Precip Events Conditions
12:54 AM 24.1 °F 12.5 °F 18.0 °F 77% 29.97 in 7.0 mi NNW 12.7 mph 17.3 mph 0.00 in Snow Light Snow
1:54 AM 23.0 °F 11.1 °F 18.0 °F 81% 29.98 in 5.0 mi NNW 12.7 mph - 0.00 in Snow Light Snow
2:54 AM 23.0 °F 11.7 °F 17.1 °F 78% 29.97 in 9.0 mi NNW 11.5 mph - 0.00 in Snow Light Snow
3:54 AM 21.9 °F 11.0 °F 17.1 °F 82% 29.96 in 9.0 mi NNW 10.4 mph - 0.00 in Snow Light Snow
4:54 AM 21.9 °F 11.0 °F 16.0 °F 78% 29.97 in 9.0 mi NW 10.4 mph - 0.00 in Snow Light Snow
5:54 AM 21.2 °F 10.1 °F 15.8 °F 80% 29.93 in 8.0 mi NNW 10.4 mph - N/A Snow Light Snow
6:24 AM 21.2 °F 10.9 °F 15.8 °F 80% 29.93 in 8.0 mi NW 9.2 mph - 0.00 in Snow Light Snow
6:54 AM 21.0 °F 9.9 °F 16.0 °F 81% 29.97 in 9.0 mi North 10.4 mph - 0.00 in Snow Light Snow
7:54 AM 21.0 °F 11.4 °F 16.0 °F 81% 29.98 in 3.0 mi NW 8.1 mph - 0.00 in Snow Light Snow
8:54 AM 21.0 °F 12.4 °F 16.0 °F 81% 29.98 in 6.0 mi WNW 6.9 mph - 0.00 in Snow Light Snow
9:33 AM 21.2 °F 13.6 °F 15.8 °F 80% 29.94 in 2.0 mi NNW 5.8 mph - 0.00 in Snow Light Snow
9:54 AM 21.0 °F 10.6 °F 16.0 °F 81% 29.98 in 3.0 mi NNW 9.2 mph - 0.00 in Snow Light Snow
10:29 AM 21.2 °F 11.7 °F 15.8 °F 80% 29.94 in 8.0 mi NNW 8.1 mph - 0.00 in Snow Light Snow
10:54 AM 21.9 °F 14.5 °F 16.0 °F 78% 29.97 in 7.0 mi WNW 5.8 mph - 0.00 in   Overcast
11:54 AM 21.9 °F 13.4 °F 17.1 °F 82% 29.97 in 5.0 mi WNW 6.9 mph - 0.00 in Snow Light Snow
12:08 PM 21.2 °F 11.7 °F 17.6 °F 86% 29.93 in 2.5 mi West 8.1 mph - 0.00 in Snow Light Snow
12:54 PM 23.0 °F 13.9 °F 17.1 °F 78% 29.96 in 5.0 mi WNW 8.1 mph - 0.00 in Snow Light Snow
1:54 PM 23.0 °F 11.7 °F 18.0 °F 81% 29.94 in 4.0 mi West 11.5 mph - 0.00 in Snow Light Snow
2:54 PM 24.1 °F 13.7 °F 18.0 °F 77% 29.93 in 8.0 mi WNW 10.4 mph - 0.00 in Snow Light Snow
3:54 PM 25.0 °F 15.5 °F 18.0 °F 75% 29.93 in 9.0 mi WNW 9.2 mph - 0.00 in Snow Light Snow
4:54 PM 25.0 °F 14.8 °F 18.0 °F 75% 29.93 in 9.0 mi WNW 10.4 mph - 0.00 in Snow Light Snow
5:54 PM 25.0 °F 18.1 °F 18.0 °F 75% 29.93 in 7.0 mi WNW 5.8 mph - 0.00 in Snow Light Snow
6:54 PM 26.1 °F 18.4 °F 19.0 °F 75% 29.94 in 9.0 mi WNW 6.9 mph - 0.00 in Snow Light Snow
7:54 PM 25.0 °F 15.5 °F 18.0 °F 75% 29.93 in 9.0 mi NW 9.2 mph - 0.00 in Snow Light Snow
8:54 PM 25.0 °F 14.2 °F 17.1 °F 72% 29.94 in 9.0 mi NW 11.5 mph - 0.00 in Snow Light Snow
9:54 PM 24.1 °F 15.2 °F 18.0 °F 77% 29.93 in 7.0 mi NW 8.1 mph - 0.00 in Snow Light Snow
10:54 PM 24.1 °F 14.4 °F 18.0 °F 77% 29.93 in 7.0 mi WNW 9.2 mph - 0.00 in Snow Light Snow
11:54 PM 24.1 °F 14.4 °F 18.0 °F 77% 29.92 in 8.0 mi NW 9.2 mph - 0.00 in Snow Light Snow